Regional Weather Roundup
Issued by NWS Goodland, KS

Home | Current Version | Previous Version | Graphics & Text | Print | Product List | Glossary On
Versions: 1 2 3 4 5 6 7 8 9 10 11 12 13 14 15 16 17 18 19 20 21 22 23 24 25 26 27 28 29 30 31 32 33 34 35 36 37 38 39 40 41 42 43 44 45 46 47 48 49 50
000
ASUS43 KGLD 251859
RWRGLD

GOODLAND FORECAST AREA HOURLY WEATHER ROUNDUP
NATIONAL WEATHER SERVICE GOODLAND KS
100 PM MDT MON MAY 25 2015

...OFFICIAL OBSERVATIONS...

CITY           SKY/WX    TMP DP  RH WIND       PRES   REMARKS
GOODLAND KS    CLOUDY    66  48  52 W6        29.88S
HILL CITY KS   SUNNY     73  57  57 SW8       29.81F
IMPERIAL NEB   MOSUNNY   65  49  56 W14       29.84R
MCCOOK NEB     MOSUNNY   70  51  51 W7        29.82S
AKRON CO       PTSUNNY   57  48  72 NW18      29.91R
BURLINGTON CO  PTSUNNY   63  45  51 SW6       29.91R
LIMON CO       MOSUNNY   61  44  53 N10       29.94R
$$

...UNOFFICIAL OBSERVATIONS...

CITY           SKY/WX    TMP DP  RH WIND       PRES   REMARKS
COLBY KS       MOSUNNY   70  52  52 W10       29.87S
GOVE KS          N/A     72  32  23 MISG        N/A
LENORA KS        N/A     69  32  25 MISG        N/A
NORTON KS      MOSUNNY   73  52  46 SW10G16   29.81F
SHARON SPRINGS   N/A     69  49  48 MISG        N/A
KIT CARSON CO    N/A     64  46  52 MISG        N/A
YUMA CO          N/A     65  53  65 CALM        N/A
$$



USA.gov is the U.S. government's official web portal to all federal, state and local government web resources and services.